This is the latest recevied weather packets stored in our database for station/object KF4WSW-13. If no packets are shown the sender has not sent any weather packets the latest 10 day(s).
| Time | Temp. | Humidity | Pressure | Rain* | Wind** | Luminosity | Snow |
|---|---|---|---|---|---|---|---|
| 1778024050 | 25° C | 77% | 1012.8 hPa | 0 mm | - | 27 W/m² | - |
| 1778023747 | 25° C | 77% | 1012.7 hPa | 0 mm | - | 32 W/m² | - |
| 1778023445 | 25° C | 76% | 1012.8 hPa | 0 mm | - | 39 W/m² | - |
| 1778023141 | 25° C | 76% | 1012.9 hPa | 0 mm | - | 45 W/m² | - |
| 1778022839 | 25° C | 76% | 1012.7 hPa | 0 mm | - | 53 W/m² | - |
| 1778022537 | 25° C | 76% | 1012.8 hPa | 0 mm | - | 58 W/m² | - |
| 1778022234 | 25° C | 76% | 1012.7 hPa | 0 mm | - | 58 W/m² | - |
| 1778021930 | 25° C | 75% | 1012.8 hPa | 0 mm | - | 60 W/m² | - |
| 1778021628 | 25.56° C | 75% | 1012.9 hPa | 0 mm | - | 62 W/m² | - |
| 1778021323 | 25.56° C | 75% | 1012.8 hPa | 0 mm | - | 68 W/m² | - |
| 1778021021 | 25.56° C | 74% | 1012.9 hPa | 0 mm | - | 66 W/m² | - |
| 1778020718 | 25.56° C | 75% | 1012.9 hPa | 0 mm | - | 73 W/m² | - |
| 1778020415 | 25.56° C | 73% | 1012.8 hPa | 0 mm | - | 78 W/m² | - |
| 1778020110 | 25.56° C | 72% | 1012.9 hPa | 0 mm | - | 84 W/m² | - |
| 1778019807 | 25.56° C | 73% | 1012.9 hPa | 0 mm | - | 82 W/m² | - |
| 1778019504 | 25.56° C | 73% | 1013 hPa | 0 mm | - | 91 W/m² | - |
| 1778019201 | 25.56° C | 73% | 1012.9 hPa | 0 mm | - | 143 W/m² | - |
| 1778018898 | 25.56° C | 73% | 1013 hPa | 0 mm | - | 96 W/m² | - |
| 1778018595 | 26.11° C | 72% | 1012.9 hPa | 0 mm | - | 95 W/m² | - |
| 1778018293 | 25.56° C | 72% | 1012.7 hPa | 0 mm | - | 110 W/m² | - |
| 1778017990 | 26.11° C | 73% | 1013.1 hPa | 0 mm | - | 138 W/m² | - |
| 1778017688 | 26.11° C | 72% | 1013 hPa | 0 mm | - | 169 W/m² | - |
| 1778017385 | 26.11° C | 72% | 1012.9 hPa | 0 mm | - | 155 W/m² | - |
| 1778017082 | 26.67° C | 71% | 1012.8 hPa | 0 mm | - | 133 W/m² | - |
| 1778016780 | 26.11° C | 69% | 1013 hPa | 0 mm | - | 149 W/m² | - |
* Rain latest hour (hover to see other rain measurements)
** Current wind speed in m/s (hover to see current wind gust speed)